When you browse on this site, cookies collect data to enhance your experience and personalize the content and advertising you see.
Visit our Privacy Policy to learn more. By continuing to use the site, you agree to this use of cookies and data.
  • In Hungary
  • List of Countries
  • For 7 days
  • Water Temperature
  • Weather Map
  • News
  • Weather Widgets
  • user-avatar
    Login

    Hourly Weather Tzimol

    Today, 18 November, Monday

    Time Temperature Precipitation Wind Pressure Humidity
    00:00 +13°C° 0 mm 1 mps 624 mmHg 92%
    01:00 +12°C° 0 mm 1 mps 623 mmHg 91%
    02:00 +12°C° 0 mm 1 mps 623 mmHg 91%
    03:00 +12°C° 0 mm 1 mps 623 mmHg 90%
    04:00 +12°C° 0 mm 1 mps 623 mmHg 89%
    05:00 +12°C° 0 mm 1 mps 623 mmHg 89%
    06:00 +12°C° 0 mm 1 mps 623 mmHg 88%
    07:00 +13°C° 0 mm 1 mps 624 mmHg 83%
    08:00 +15°C° 0 mm 1 mps 626 mmHg 78%
    09:00 +18°C° 0 mm 1 mps 627 mmHg 73%
    10:00 +19°C° 0 mm 1 mps 627 mmHg 69%
    11:00 +21°C° 0 mm 1 mps 627 mmHg 65%
    12:00 +22°C° 0 mm 1 mps 627 mmHg 61%
    13:00 +22°C° 0 mm 1 mps 626 mmHg 63%
    14:00 +22°C° 0 mm 1 mps 625 mmHg 64%
    15:00 +21°C° 0 mm 1 mps 625 mmHg 66%
    16:00 +20°C° 0 mm 1 mps 624 mmHg 74%
    17:00 +18°C° 0 mm 1 mps 624 mmHg 82%
    18:00 +14°C° 0 mm 0 mps 623 mmHg 91%
    19:00 +14°C° 0 mm 1 mps 624 mmHg 90%
    20:00 +14°C° 0 mm 1 mps 624 mmHg 89%
    21:00 +13°C° 0 mm 1 mps 625 mmHg 88%
    22:00 +13°C° 0 mm 1 mps 624 mmHg 87%
    23:00 +13°C° 0 mm 1 mps 624 mmHg 85%

    Tomorrow, 19 November, Tuesday

    Time Temperature Precipitation Wind Pressure Humidity
    00:00 +11°C° 0 mm 0 mps 624 mmHg 83%
    01:00 +11°C° 0 mm 0 mps 624 mmHg 83%
    02:00 +11°C° 0 mm 0 mps 624 mmHg 82%
    03:00 +11°C° 0 mm 0 mps 623 mmHg 81%
    04:00 +11°C° 0 mm 0 mps 623 mmHg 81%
    05:00 +11°C° 0 mm 0 mps 624 mmHg 80%
    06:00 +11°C° 0 mm 0 mps 624 mmHg 80%
    07:00 +13°C° 0 mm 0 mps 625 mmHg 76%
    08:00 +16°C° 0 mm 1 mps 626 mmHg 72%
    09:00 +18°C° 0 mm 1 mps 627 mmHg 68%
    10:00 +20°C° 0 mm 1 mps 627 mmHg 65%
    11:00 +21°C° 0 mm 1 mps 627 mmHg 63%
    12:00 +22°C° 0 mm 1 mps 627 mmHg 60%
    13:00 +22°C° 0 mm 1 mps 626 mmHg 62%
    14:00 +22°C° 0 mm 1 mps 626 mmHg 64%
    15:00 +22°C° 0 mm 1 mps 626 mmHg 66%
    16:00 +20°C° 0 mm 1 mps 625 mmHg 74%
    17:00 +18°C° 0 mm 1 mps 625 mmHg 82%
    18:00 +14°C° 0 mm 0 mps 624 mmHg 90%
    19:00 +15°C° 0 mm 1 mps 625 mmHg 90%
    20:00 +14°C° 0 mm 1 mps 625 mmHg 89%
    21:00 +14°C° 0 mm 1 mps 626 mmHg 89%
    22:00 +13°C° 0 mm 1 mps 625 mmHg 90%
    23:00 +13°C° 0 mm 1 mps 625 mmHg 91%

    Day after tomorrow, 20 November, Wednesday

    Time Temperature Precipitation Wind Pressure Humidity
    00:00 +13°C° 0 mm 1 mps 625 mmHg 91%
    01:00 +11°C° 0 mm 0 mps 624 mmHg 91%
    02:00 +11°C° 0 mm 0 mps 624 mmHg 91%
    03:00 +11°C° 0 mm 0 mps 624 mmHg 92%
    04:00 +11°C° 0 mm 0 mps 624 mmHg 91%
    05:00 +11°C° 0 mm 0 mps 624 mmHg 90%
    06:00 +11°C° 0 mm 0 mps 624 mmHg 89%
    07:00 +13°C° 0 mm 0 mps 625 mmHg 82%
    08:00 +16°C° 0 mm 1 mps 626 mmHg 75%
    09:00 +19°C° 0 mm 1 mps 628 mmHg 67%
    10:00 +21°C° 0 mm 1 mps 627 mmHg 65%
    11:00 +22°C° 0 mm 1 mps 627 mmHg 63%
    12:00 +23°C° 0 mm 1 mps 627 mmHg 60%
    13:00 +23°C° 0 mm 1 mps 627 mmHg 62%
    14:00 +23°C° 0 mm 1 mps 626 mmHg 64%
    15:00 +22°C° 0 mm 1 mps 625 mmHg 66%
    16:00 +20°C° 0 mm 1 mps 625 mmHg 73%
    17:00 +19°C° 0 mm 1 mps 625 mmHg 81%
    18:00 +15°C° 0 mm 0 mps 624 mmHg 88%
    19:00 +16°C° 0 mm 1 mps 625 mmHg 89%
    20:00 +15°C° 0 mm 1 mps 625 mmHg 89%
    21:00 +15°C° 0 mm 1 mps 625 mmHg 89%
    22:00 +14°C° 0 mm 1 mps 625 mmHg 89%
    23:00 +14°C° 0 mm 1 mps 625 mmHg 89%

    21 November, Thursday

    Time Temperature Precipitation Wind Pressure Humidity
    00:00 +14°C° 0 mm 1 mps 625 mmHg 89%
    01:00 +14°C° 0 mm 1 mps 624 mmHg 88%
    02:00 +13°C° 0 mm 1 mps 624 mmHg 87%
    03:00 +13°C° 0 mm 1 mps 624 mmHg 86%
    04:00 +13°C° 0 mm 1 mps 624 mmHg 86%
    05:00 +13°C° 0 mm 1 mps 624 mmHg 86%
    06:00 +13°C° 0 mm 1 mps 624 mmHg 86%
    07:00 +15°C° 0 mm 1 mps 625 mmHg 81%
    08:00 +18°C° 0 mm 1 mps 626 mmHg 75%
    09:00 +20°C° 0 mm 1 mps 627 mmHg 70%
    10:00 +22°C° 0 mm 1 mps 627 mmHg 67%
    11:00 +23°C° 0 mm 1 mps 627 mmHg 64%
    12:00 +24°C° 0 mm 1 mps 627 mmHg 62%
    13:00 +24°C° 0 mm 1 mps 626 mmHg 64%
    14:00 +23°C° 0 mm 1 mps 626 mmHg 66%
    15:00 +23°C° 0 mm 1 mps 625 mmHg 69%
    16:00 +21°C° 0.1 mm 1 mps 625 mmHg 76%
    17:00 +20°C° 0.1 mm 1 mps 624 mmHg 82%
    18:00 +16°C° 0.1 mm 0 mps 624 mmHg 89%
    19:00 +16°C° 0 mm 0 mps 625 mmHg 89%
    20:00 +16°C° 0 mm 1 mps 625 mmHg 90%
    21:00 +16°C° 0 mm 1 mps 625 mmHg 90%
    22:00 +16°C° 0 mm 1 mps 625 mmHg 90%
    23:00 +15°C° 0 mm 1 mps 625 mmHg 90%

    22 November, Friday

    Time Temperature Precipitation Wind Pressure Humidity
    00:00 +14°C° 0 mm 0 mps 625 mmHg 91%
    01:00 +14°C° 0 mm 0 mps 624 mmHg 91%
    02:00 +14°C° 0 mm 0 mps 624 mmHg 90%
    03:00 +13°C° 0 mm 0 mps 623 mmHg 90%
    04:00 +13°C° 0 mm 0 mps 624 mmHg 90%
    05:00 +13°C° 0 mm 0 mps 624 mmHg 90%
    06:00 +13°C° 0 mm 0 mps 624 mmHg 90%
    07:00 +15°C° 0 mm 0 mps 625 mmHg 85%
    08:00 +16°C° 0 mm 0 mps 626 mmHg 80%
    09:00 +18°C° 0 mm 0 mps 627 mmHg 75%
    10:00 +22°C° 0 mm 1 mps 627 mmHg 71%
    11:00 +23°C° 0 mm 1 mps 627 mmHg 67%
    12:00 +24°C° 0 mm 1 mps 627 mmHg 63%
    13:00 +24°C° 0.1 mm 1 mps 626 mmHg 65%
    14:00 +24°C° 0.1 mm 1 mps 626 mmHg 68%
    15:00 +23°C° 0.1 mm 1 mps 625 mmHg 70%
    16:00 +22°C° 0.3 mm 1 mps 625 mmHg 76%
    17:00 +20°C° 0.3 mm 1 mps 624 mmHg 82%
    18:00 +16°C° 0.3 mm 0 mps 624 mmHg 88%
    19:00 +16°C° 0.1 mm 0 mps 624 mmHg 89%
    20:00 +18°C° 0.1 mm 1 mps 625 mmHg 89%
    21:00 +16°C° 0.1 mm 1 mps 625 mmHg 90%
    22:00 +16°C° 0.1 mm 1 mps 625 mmHg 90%
    23:00 +15°C° 0.1 mm 0 mps 625 mmHg 91%

    23 November, Saturday

    Time Temperature Precipitation Wind Pressure Humidity
    00:00 +14°C° 0.1 mm 0 mps 625 mmHg 91%
    01:00 +14°C° 0 mm 0 mps 624 mmHg 92%
    02:00 +14°C° 0 mm 0 mps 624 mmHg 92%
    03:00 +13°C° 0 mm 0 mps 623 mmHg 93%
    04:00 +13°C° 0 mm 0 mps 624 mmHg 93%
    05:00 +13°C° 0 mm 0 mps 624 mmHg 92%
    06:00 +13°C° 0 mm 0 mps 624 mmHg 92%
    07:00 +15°C° 0 mm 0 mps 625 mmHg 88%
    08:00 +17°C° 0 mm 0 mps 626 mmHg 83%
    09:00 +18°C° 0 mm 0 mps 627 mmHg 79%
    10:00 +22°C° 0 mm 1 mps 627 mmHg 74%
    11:00 +23°C° 0 mm 1 mps 627 mmHg 69%
    12:00 +24°C° 0 mm 2 mps 627 mmHg 63%
    13:00 +24°C° 0.1 mm 2 mps 627 mmHg 65%
    14:00 +23°C° 0.1 mm 2 mps 626 mmHg 66%
    15:00 +23°C° 0.1 mm 2 mps 625 mmHg 67%
    16:00 +20°C° 0.5 mm 2 mps 625 mmHg 75%
    17:00 +20°C° 0.5 mm 1 mps 625 mmHg 83%
    18:00 +18°C° 0.5 mm 1 mps 624 mmHg 91%
    19:00 +16°C° 0.1 mm 1 mps 625 mmHg 92%
    20:00 +16°C° 0.1 mm 1 mps 625 mmHg 92%
    21:00 +16°C° 0.1 mm 2 mps 626 mmHg 92%
    22:00 +15°C° 0 mm 2 mps 626 mmHg 92%
    23:00 +15°C° 0 mm 2 mps 625 mmHg 92%
    Show more